Погода в Нахе

Япония     26°12′54″N   127°41′30″E
темп.,
°C
ветер,
м/с
пор.,
м/с
влажн.,
%
обл.,
%
осадки,
мм/ч
давл.,
гПа
погр.,
м
9 декабря, чт
чт900:00+20всв575392 0.1 10241228
03:00+20всв68549 0.1 10231171
06:00+19всв675541 0.0 10231130
09:00+20всв675391 0.0 10241719
12:00+21всв565081 0.0 10241809
15:00+21в4552100 0.0 10221558
18:00+20всв4559100 0.0 1023732
21:00+20всв5659100 0.1 1024866
10 декабря, пт
пт1000:00+19всв4562100 0.1 1023547
03:00+19всв5663100 0.1 1022712
06:00+19всв57630 0.0 1022662
09:00+20всв56562 0.0 10241349
12:00+22всв56504 0.0 10231634
15:00+22св56491 0.0 10211443
18:00+20св57615 0.0 1022850
21:00+19св58632 0.0 1023767
11 декабря, сб
сб1100:00+20св576087 0.0 1023795
03:00+20всв565658 0.1 10221146
06:00+19всв47640 0.0 1023527
09:00+21всв466216 0.0 10241053
12:00+22в44606 0.1 10231236
15:00+22в446699 0.3 1021874
18:00+20всв3476100 0.5 1022362
21:00+20всв3475100 0.6 1023333
12 декабря, вс
вс1200:00+20в357461 0.3 1022405
03:00+20вюв356990 0.6 1021351
06:00+21в236493 0.3 1021314
09:00+22вюв225986 0.3 1022861
12:00+21с2164100 0.5 1022830
15:00+19с4583100 1.9 1020420
18:00+19ссв6982100 1.4 1021774
21:00+19ссв697895 2.2 1022877
13 декабря, пн
пн1300:00+19ссв796796 0.2 1022970
03:00+19ссв796641 0.2 10221056
06:00+18ссв796991 0.1 10221042
09:00+19ссв7868100 0.3 10231197
12:00+20с785957 0.1 10231574
15:00+19ссв897093 0.6 10211299
18:00+17ссв686753 0.2 1022921
21:00+17ссв576452 0.2 1023809